Regional Weather Roundup
Issued by NWS Cleveland, OH

Home | Current Version | Previous Version | Graphics & Text | Print | Product List | Glossary On
Versions: 1 2 3 4 5 6 7 8 9 10 11 12 13 14 15 16 17 18 19 20 21 22 23 24 25 26 27 28 29 30 31 32 33 34 35 36 37 38 39 40 41 42 43 44 45 46 47 48 49 50
000
ASUS41 KCLE 251200
RWRCLE
OHIO REGIONAL WEATHER ROUNDUP
NATIONAL WEATHER SERVICE WILMINGTON, OH
800 AM EDT FRI MAY 25 2018

NOTE: "FAIR" INDICATES FEW OR NO CLOUDS BELOW 12,000 FEET WITH NO
SIGNIFICANT WEATHER AND/OR OBSTRUCTIONS TO VISIBILITY.

OHZ001>008-015>018-024>027-034-035-043-044-251300-
   NORTHWEST OHIO

CITY           SKY/WX    TMP DP  RH WIND       PRES   REMARKS
DEFIANCE       FAIR      61  56  83 CALM      30.01F
FINDLAY        FAIR      64  56  75 S5        30.01F
TOLEDO EXPRESS FAIR      66  57  72 CALM      30.01S
TOLEDO EXEC    FAIR      64  56  75 S5        30.02S
LIMA           FAIR      64  53  67 S7        30.03F
$$

OHZ009>014-019>023-028>033-038-089-251300-
   NORTHEAST OHIO

CITY           SKY/WX    TMP DP  RH WIND       PRES   REMARKS
CLE-HOPKINS    FAIR      66  56  70 CALM      30.05S
CLE-LAKEFRONT  FAIR      67  51  56 S7        30.01F
CUY CO. ARPT   MOSUNNY   68  57  68 S6        30.05S
LORAIN-ELYRIA  FAIR      62  50  64 VRB6      30.03F
ASHTABULA      FAIR      61  57  87 CALM      30.05F
AKRON-CANTON   FAIR      67  54  63 CALM      30.05F
WOOSTER        NOT AVBL
MANSFIELD      FAIR      63  56  78 CALM      30.04F
YOUNGSTOWN     FAIR      64  55  72 E3        30.06S
$$

OHZ042-051>053-060>062-070>072-077>081-251300-
  SOUTHWEST OHIO

CITY           SKY/WX    TMP DP  RH WIND       PRES   REMARKS
CINC-COVINGTON FAIR      68  59  73 CALM      30.04S
CINC-LUNKEN    FAIR      61  61 100 CALM      30.05S
HAMILTON       FAIR      63  61  93 CALM      30.05S
DAYTON         NOT AVBL
WRIGHT-PAT AFB FAIR      61  56  84 CALM      30.05R
DAYTON GENERAL FAIR      67  58  72 CALM      30.04S
WILMINGTON       N/A     66  63  90 CALM      30.05S
$$

OHZ036-037-039>041-045>050-054>059-063>069-073>076-082>088-251300-
  CENTRAL AND SOUTHEAST OHIO

CITY           SKY/WX    TMP DP  RH WIND       PRES   REMARKS
COLUMBUS       FAIR      65  56  72 CALM      30.04S
OSU AIRPORT    FAIR      64  58  80 CALM      30.04F
BOLTON FIELD   SUNNY     61  57  88 SW6       30.05F
RICKENBACK AFB NOT AVBL
NEWARK         FAIR      60  56  86 CALM      30.05S
MARION         FAIR      63  56  78 S3        30.04F
LANCASTER      FAIR      61  58  90 CALM      30.05F
ZANESVILLE     FAIR      61  56  83 CALM      30.05F
NEW PHILLY     FAIR      60  55  83 CALM      30.06F
$$



USA.gov is the U.S. government's official web portal to all federal, state and local government web resources and services.